[[{"header":{"parameterUnit":"m.s-1","parameterCategory":1,"la1":30.2992,"la2":30.254,"lo1":-89.0895,"lo2":-89.0443,"dy":0.0025,"dx":0.0025,"nx":19,"ny":19,"refTime":"2026-03-24T03:00:00:Z","depth":0,"parameterNumber":2,"parameterNumberName":"U-component_of_WINDS"},"data":[0,0,0,-4.5914,-4.5922,-4.6282,-4.6284,-4.6724,-4.6727,0,0,0,0,0,0,0,0,0,0,0,-4.5793,-4.5795,-4.5914,-4.5922,-4.6282,-4.6284,-4.6723,-4.6727,0,0,0,0,0,0,0,0,0,0,0,-4.5792,-4.5795,-4.5798,-4.5924,-4.6282,-4.6284,-4.6722,-4.6458,0,0,0,0,0,0,0,0,0,0,-4.6112,-4.5985,-4.5794,-4.5798,-4.5926,-4.6281,-4.6284,-4.6446,-4.6475,-4.6551,0,-4.6613,0,-4.6677,-4.6755,-4.6757,0,0,0,-4.5934,-4.5961,-4.6071,-4.5798,-4.5929,-4.6281,-4.6123,-4.6462,-4.6495,-4.6589,-4.662,-4.6637,-4.6684,-4.6758,-4.676,-4.7159,-4.716,0,0,-4.5914,-4.585,-4.6049,-4.6092,-4.6033,-4.6111,-4.6134,-4.6482,-4.6512,-4.6621,-4.6647,-4.6692,-4.6761,-4.6764,-4.7158,-4.7159,0,0,0,-4.5849,-4.5836,-4.5938,-4.6073,-4.6139,-4.6121,-4.6148,-4.6497,-4.6535,-4.6652,-4.6697,-4.6763,-4.6768,-4.7156,-4.7158,-4.7159,0,0,0,-4.5837,-4.5798,-4.5929,-4.5893,-4.6132,-4.6322,-4.6153,-4.6511,-4.6552,-4.6695,-4.6763,-4.6772,-4.7155,-4.7157,-4.7156,-4.7168,0,0,0,-4.5775,-4.5791,-4.5838,-4.5889,-4.6042,-4.6318,-4.6377,-4.6522,-4.6579,-4.6757,-4.6773,-4.7154,-4.7157,-4.7153,-4.7164,-4.7252,0,0,0,-4.5689,-4.5835,-4.5837,-4.6018,-4.6038,-4.6316,-4.6375,-4.6587,-4.6739,-4.6765,-4.7155,-4.7158,-4.7152,-4.7162,-4.7249,-4.7311,-4.7333,0,0,-4.5837,-4.585,-4.5962,-4.5974,-4.6235,-4.6266,-4.653,-4.6731,-4.6808,-4.7038,-4.7049,-4.7157,-4.7164,-4.7252,-4.7481,-4.7497,0,0,0,-4.5987,-4.6066,-4.6149,-4.6291,-4.6448,-4.6584,-4.6752,-4.6828,-4.7026,-4.6912,-4.7217,-4.7223,-4.7277,-4.731,-4.7324,-4.7373,-4.7172,-4.7171,-4.7171,-4.6102,-4.6192,-4.6383,-4.6516,-4.6654,-4.6827,-4.6947,-4.7078,-4.713,-4.7201,-4.7267,-4.7395,-4.7432,-4.7442,-4.7493,-4.7312,-4.7312,-4.7312,-4.7312,-4.6324,-4.6448,-4.6515,-4.6722,-4.6818,-4.6994,-4.7169,-4.72,-4.7378,-4.7352,-4.7405,-4.7363,-4.7457,-4.7506,-4.7313,-4.7313,-4.7313,-4.7313,-4.7313,-4.6405,-4.648,-4.657,-4.6785,-4.6942,-4.7076,-4.7243,-4.7327,-4.7406,-4.7458,-4.7536,-4.7537,-4.7544,-4.7491,-4.7491,-4.7492,-4.7492,-4.7492,-4.7493,-4.6451,-4.6552,-4.6682,-4.6864,-4.6966,-4.7112,-4.7291,-4.7395,-4.7532,-4.7579,-4.758,-4.7622,-4.7451,-4.7403,-4.75,-4.7498,-4.7497,-4.7497,-4.7496,-4.6633,-4.6606,-4.6806,-4.6909,-4.713,-4.7279,-4.7386,-4.7591,-4.769,-4.7771,-4.7806,-4.7667,-4.7686,-4.7675,-4.7636,-4.7787,-4.7787,-4.7787,-4.7787,-4.6697,-4.6716,-4.694,-4.7099,-4.7266,-4.7382,-4.7608,-4.7751,-4.7893,-4.7961,-4.7953,-4.791,-4.7896,-4.7923,-4.7908,-4.7872,-4.808,-4.808,-4.8081,-4.6812,-4.6852,-4.7025,-4.7164,-4.7344,-4.7497,-4.7712,-4.7894,-4.8051,-4.8094,-4.8015,-4.8002,-4.7934,-4.7908,-4.7941,-4.7915,-4.7851,0,0]},{"header":{"parameterUnit":"m.s-1","parameterCategory":1,"la1":30.2992,"la2":30.254,"lo1":-89.0895,"lo2":-89.0443,"dy":0.0025,"dx":0.0025,"nx":19,"ny":19,"refTime":"2026-03-24T03:00:00:Z","depth":0,"parameterNumber":3,"parameterNumberName":"V-component_of_WINDS"},"data":[0,0,0,2.4346,2.435,2.4539,2.454,2.4755,2.4757,0,0,0,0,0,0,0,0,0,0,0,2.4277,2.4278,2.4346,2.435,2.4539,2.454,2.4755,2.4757,0,0,0,0,0,0,0,0,0,0,0,2.4277,2.4278,2.4279,2.4351,2.4539,2.454,2.4755,2.462,0,0,0,0,0,0,0,0,0,0,2.4441,2.4366,2.4278,2.4279,2.4352,2.4539,2.454,2.4614,2.4629,2.4659,0,2.4686,0,2.4725,2.477,2.4771,0,0,0,2.4358,2.4353,2.4417,2.4279,2.4353,2.4538,2.4456,2.4623,2.4639,2.4678,2.4689,2.4698,2.4729,2.4771,2.4772,2.4929,2.4929,0,0,2.4348,2.4303,2.4405,2.4427,2.44,2.445,2.4462,2.4633,2.4641,2.469,2.4704,2.4732,2.4773,2.4774,2.4929,2.4929,0,0,0,2.4312,2.4295,2.4355,2.4417,2.4453,2.4455,2.4469,2.4633,2.4656,2.4706,2.4735,2.4774,2.4776,2.4929,2.4929,2.4903,0,0,0,2.4306,2.4275,2.435,2.4324,2.445,2.4546,2.4465,2.4644,2.4665,2.4734,2.4774,2.4778,2.4928,2.4929,2.4903,2.4898,0,0,0,2.4269,2.4271,2.4294,2.4321,2.4402,2.4545,2.4578,2.465,2.4682,2.4771,2.4779,2.4928,2.4929,2.4904,2.4898,2.4926,0,0,0,2.4215,2.4266,2.4293,2.4361,2.44,2.4529,2.4578,2.4675,2.4748,2.4775,2.4928,2.4929,2.4904,2.4898,2.4926,2.4941,2.4944,0,0,2.4254,2.4269,2.4313,2.4343,2.4456,2.4503,2.4612,2.4719,2.4766,2.4871,2.4876,2.4903,2.4898,2.4926,2.4977,2.4978,0,0,0,2.431,2.4341,2.4381,2.4451,2.4536,2.4609,2.4705,2.4745,2.4837,2.4813,2.4923,2.4921,2.4939,2.4949,2.495,2.4968,2.4932,2.4932,2.4932,2.4299,2.4362,2.4438,2.4523,2.4589,2.469,2.4748,2.4819,2.4858,2.4884,2.4914,2.4938,2.4948,2.4949,2.4967,2.4929,2.4929,2.4929,2.4929,2.4362,2.4415,2.4471,2.4566,2.4629,2.4708,2.4806,2.4833,2.4913,2.492,2.4939,2.4939,2.4949,2.4968,2.4927,2.4927,2.4928,2.4928,2.4928,2.4361,2.4397,2.4448,2.4556,2.4632,2.4715,2.4791,2.4846,2.4898,2.4917,2.4955,2.4956,2.4962,2.4932,2.4932,2.4932,2.4932,2.4932,2.4932,2.4338,2.4397,2.4457,2.4554,2.4607,2.4683,2.4785,2.4837,2.4909,2.4942,2.4943,2.4979,2.494,2.4928,2.4934,2.4934,2.4933,2.4933,2.4933,2.4376,2.4378,2.4469,2.4522,2.4642,2.4713,2.4784,2.4886,2.4937,2.4972,2.5007,2.4969,2.4986,2.4986,2.4976,2.4994,2.4994,2.4994,2.4994,2.4374,2.439,2.4497,2.4579,2.4665,2.4739,2.4838,2.4918,2.5,2.5035,2.5041,2.5034,2.503,2.505,2.5048,2.504,2.5073,2.5073,2.5074,2.44,2.4428,2.4503,2.4588,2.4686,2.4768,2.4863,2.4951,2.5044,2.5078,2.5064,2.506,2.5049,2.5042,2.5072,2.5068,2.5054,0,0]}]]